Wind_Speed
6 3 2 1 0 1 1 2 3 4 5 7 9 10 11 10 8 5 4 6 7 9 12 13 10 6 2 3 5 4 3 2 4 2 2 3 5 4 4 4 5 5 5
3 3 2 2 2 3 1 1 1 2 3 4 6 8 9 9 9 7 4 4 4 6 9 11 11 8 5 3 2 2 5 8 8 5 4 4 5 6 6 6 5 5 5
3 4 4 3 3 5 4 3 3 3 3 4 5 6 6 7 8 8 6 4 3 4 6 8 9 9 8 6 5 3 3 6 8 8 7 6 6 6 6 6 6 6 6
2 7 5 4 5 6 6 6 6 6 5 5 5 6 6 6 7 7 6 5 4 5 5 6 7 8 8 7 5 4 4 5 7 7 7 7 7 7 7 7 7 7 7
3 6 6 7 7 6 8 8 8 8 8 8 7 7 7 7 8 8 7 6 4 5 6 6 6 7 7 7 6 5 4 5 6 7 7 7 8 8 8 8 9 9 9
7 7 7 8 9 8 9 10 10 11 12 12 11 11 10 10 10 9 7 7 7 6 6 7 8 8 7 7 7 6 6 6 7 8 8 8 9 9 9 9 10 10 10
9 9 8 10 10 12 11 12 13 14 15 15 15 14 14 13 12 11 9 10 10 10 10 10 10 10 9 9 9 8 8 8 9 10 10 10 11 11 11 11 11 11 11
10 9 11 12 13 13 14 15 16 17 17 18 17 16 16 15 14 13 14 14 14 13 13 13 13 13 13 12 12 11 10 10 10 11 11 12 12 13 14 14 15 14 13
10 11 13 14 15 17 17 17 18 19 20 20 20 19 18 18 18 18 18 18 16 16 16 16 16 16 16 16 15 14 14 14 13 13 13 13 12 13 14 15 16 16 15
12 13 14 14 14 15 14 15 16 17 18 19 21 21 21 22 22 22 22 21 20 20 20 20 20 19 19 20 19 19 18 18 17 17 15 15 15 15 15 15 15 15 15
15 15 15 15 15 16 16 15 16 16 17 19 21 23 23 22 23 24 24 24 23 24 23 24 24 24 23 23 22 23 23 21 21 21 20 18 17 17 17 17 16 14 13
14 15 16 17 18 18 19 19 19 19 20 20 21 24 25 26 26 26 27 27 27 27 28 28 28 28 28 27 26 26 26 25 25 25 24 22 21 20 19 19 18 17 15
16 17 17 18 19 20 21 21 22 22 23 23 23 24 25 27 28 29 30 31 32 32 32 31 32 33 33 32 30 31 29 27 28 29 28 26 25 24 24 22 21 20 20
18 19 19 20 21 21 22 23 24 25 25 26 26 26 28 28 29 30 31 32 33 33 35 34 35 36 36 35 34 34 34 34 31 31 30 30 28 28 27 26 25 24 23
19 20 21 22 22 23 24 25 26 28 29 29 30 31 32 33 33 33 33 34 35 34 36 36 35 31 35 37 37 36 37 38 38 37 36 34 30 31 31 31 30 28 27
20 21 22 23 24 25 26 27 29 30 32 33 34 35 35 37 38 38 38 38 38 38 37 38 39 39 36 36 39 40 41 41 40 41 41 39 37 34 35 34 34 33 31
21 22 23 25 26 28 29 31 32 34 36 37 38 38 39 40 41 42 42 42 42 42 43 43 40 41 42 41 41 40 42 43 44 43 43 43 43 40 38 39 38 37 36
23 24 26 28 30 32 34 36 38 39 40 41 41 41 41 41 42 42 43 43 42 43 43 45 44 43 45 45 47 46 46 46 46 45 45 45 44 44 43 42 42 41 39
26 27 29 31 33 36 37 38 38 38 39 41 41 42 42 42 42 43 43 42 42 42 43 44 45 46 46 45 48 49 48 49 51 48 48 47 46 44 44 45 43 44 43
30 31 33 35 35 33 34 34 35 36 36 37 38 39 39 39 37 37 37 37 38 39 40 41 42 43 46 46 45 48 51 52 50 52 49 49 49 47 47 46 47 48 46
32 33 32 30 31 31 30 29 29 29 29 29 30 30 32 32 32 32 32 32 32 34 36 37 40 42 42 42 44 45 48 48 52 49 51 50 50 48 48 45 46 50 50
29 27 29 27 27 25 24 24 25 26 27 29 29 28 28 27 27 27 29 31 32 35 36 36 36 38 39 39 41 42 46 46 48 50 46 50 44 47 50 42 46 39 43
26 25 25 22 22 24 25 26 28 29 29 28 28 29 29 28 26 25 27 28 28 27 25 26 28 31 34 34 32 34 40 44 42 41 43 39 35 44 51 36 35 36 30
21 19 18 19 22 24 26 27 28 29 27 28 28 29 29 27 25 25 24 23 21 21 22 22 22 22 25 27 29 31 35 37 39 42 38 36 30 30 37 27 27 30 28
14 15 18 20 23 26 28 28 27 26 27 26 26 25 26 27 26 24 21 20 20 19 19 17 17 17 19 21 25 30 31 32 31 36 38 33 29 21 25 27 28 26 26
14 16 19 22 25 27 28 27 27 25 25 24 23 21 22 24 24 21 19 19 19 19 18 16 17 17 18 20 22 24 28 31 29 28 31 35 48 26 22 24 24 24 25
Wind_Direction
215 195 218 282 286 17 93 61 54 45 38 33 31 29 27 28 29 32 30 22 22 21 29 34 39 77 144 220 260 272 242 180 250 194 204 196 195 193 196 194 193 198 199
189 219 232 283 262 258 273 324 354 20 27 22 20 19 26 25 22 23 22 16 21 25 27 31 30 30 16 322 278 288 211 201 231 228 258 231 208 205 199 205 212 221 223
175 215 251 263 266 273 284 279 289 306 326 346 351 358 6 14 13 9 8 355 355 16 20 19 22 20 15 2 337 304 252 235 253 264 266 262 237 221 219 223 220 219 225
222 207 262 260 268 269 281 278 279 287 284 299 311 324 334 344 350 349 346 343 340 336 353 0 2 4 7 3 352 333 296 258 257 264 267 264 250 244 240 239 238 235 234
251 223 243 259 266 263 270 270 270 278 278 272 283 292 304 313 322 329 329 327 316 306 320 329 334 338 345 348 346 332 301 274 268 266 265 257 252 247 247 248 250 250 249
270 260 253 252 259 268 261 270 272 270 269 270 272 277 286 291 297 303 307 307 308 299 292 301 307 310 316 320 326 324 313 296 280 271 266 264 260 253 253 255 260 259 258
265 264 269 261 279 277 270 269 269 268 268 268 268 271 272 278 280 287 291 290 293 295 292 292 293 295 295 296 302 307 308 304 296 285 277 271 268 266 263 259 258 261 264
269 269 274 275 277 280 278 277 274 269 267 267 267 270 273 275 272 278 282 284 284 285 287 287 284 283 284 286 288 291 291 289 289 288 284 277 274 272 271 271 269 266 265
269 275 276 279 278 278 281 281 282 279 275 273 275 274 273 274 277 281 280 278 276 279 283 285 283 278 276 276 276 278 283 286 283 282 284 284 281 276 275 275 275 274 272
278 280 281 281 283 285 285 287 285 283 281 277 275 276 276 278 278 279 277 276 274 276 281 285 289 285 277 272 270 270 272 275 278 279 277 281 286 285 281 277 275 276 277
277 278 281 284 288 289 289 289 286 283 280 276 275 275 278 278 276 274 275 273 272 276 279 282 284 285 284 280 274 270 268 270 272 273 275 276 276 279 281 281 278 273 271
279 280 282 284 284 286 288 290 289 288 286 283 279 277 276 275 277 279 281 282 280 277 276 277 278 279 280 281 277 271 267 264 265 268 268 271 273 273 273 274 275 273 271
281 280 280 281 283 285 287 289 289 289 287 287 284 282 280 278 277 276 274 277 277 278 279 278 277 277 278 278 277 274 268 264 265 264 266 266 267 267 268 268 267 268 268
278 280 282 283 285 286 288 289 290 291 290 288 288 287 285 282 280 278 277 277 277 276 275 275 278 278 280 279 273 271 271 272 268 267 265 262 263 265 265 265 265 265 265
276 280 283 285 286 288 288 289 289 290 290 289 289 287 285 284 283 281 279 277 276 274 276 275 275 274 275 274 275 273 266 266 270 270 269 265 259 262 264 265 265 263 262
278 281 283 285 287 288 289 289 289 288 288 287 286 285 284 284 283 282 281 280 279 278 274 271 271 269 269 270 270 266 267 266 264 267 269 269 266 262 263 263 263 263 262
282 283 286 287 289 290 291 290 289 288 287 286 285 283 282 281 281 280 279 278 279 279 279 277 272 270 269 266 267 268 263 263 261 260 263 266 268 265 263 262 261 261 260
283 286 289 291 292 293 293 293 292 291 289 288 286 285 283 281 280 280 280 280 280 280 280 279 278 273 271 268 267 267 268 263 260 259 259 260 262 266 265 261 261 258 258
283 285 288 290 292 292 292 291 291 289 287 286 285 284 283 283 283 283 283 283 283 282 281 281 280 279 275 271 268 266 264 262 261 259 257 257 258 260 263 266 264 256 253
286 289 292 293 293 293 293 292 291 290 289 288 285 284 282 282 282 282 283 282 282 283 282 282 281 280 280 278 273 268 265 262 262 258 256 257 258 258 261 267 265 266 253
288 290 291 292 294 296 298 298 298 296 295 294 292 289 284 281 280 280 282 284 284 284 282 283 284 282 281 280 278 273 269 262 258 260 257 258 255 261 262 264 272 268 275
286 288 291 293 296 299 301 303 304 302 299 293 291 290 288 285 282 282 284 285 284 285 284 283 284 285 285 284 282 279 274 270 266 260 262 257 259 262 263 267 268 283 268
287 288 291 293 296 299 302 305 307 306 303 298 294 287 284 281 281 282 283 284 284 282 285 289 291 291 290 287 284 282 278 274 272 266 258 263 261 264 256 269 271 268 272
283 283 285 291 297 300 303 306 309 309 306 301 294 291 286 286 285 284 285 284 282 285 292 294 298 303 302 294 285 280 279 280 275 269 258 257 265 269 251 269 268 267 271
280 287 292 295 298 303 307 311 312 312 316 311 299 290 285 281 281 283 283 283 286 291 293 297 305 309 314 305 294 289 281 278 274 269 267 249 249 239 259 264 265 266 269
284 289 293 296 301 307 312 315 315 315 319 319 308 294 285 279 279 281 286 288 290 287 290 297 302 300 310 317 315 298 295 278 274 270 264 257 257 286 277 273 271 267 264
Height
3167 3168 3168 3169 3169 3169 3169 3169 3169 3170 3170 3169 3169 3168 3168 3167 3166 3166 3166 3165 3165 3164 3163 3162 3161 3161 3160 3160 3159 3159 3159 3159 3158 3158 3158 3157 3157 3158 3158 3158 3158 3158 3158
3168 3168 3168 3169 3169 3168 3169 3170 3170 3170 3170 3170 3169 3169 3168 3167 3167 3166 3166 3166 3165 3165 3164 3163 3162 3161 3161 3160 3159 3159 3158 3158 3158 3158 3158 3157 3157 3157 3157 3157 3158 3158 3158
3168 3168 3168 3168 3168 3168 3169 3169 3170 3170 3170 3170 3170 3169 3169 3167 3167 3166 3166 3165 3165 3165 3164 3164 3162 3162 3161 3160 3160 3159 3159 3159 3158 3158 3158 3157 3157 3157 3156 3156 3156 3156 3157
3168 3167 3167 3167 3168 3168 3168 3168 3169 3169 3170 3169 3170 3169 3169 3168 3167 3167 3166 3165 3165 3164 3164 3164 3163 3162 3161 3160 3160 3159 3158 3158 3158 3157 3157 3156 3157 3157 3157 3156 3156 3155 3155
3167 3167 3166 3167 3167 3167 3167 3167 3168 3168 3168 3168 3168 3169 3169 3168 3168 3166 3166 3166 3164 3164 3164 3163 3163 3162 3161 3161 3160 3159 3158 3157 3157 3157 3156 3156 3155 3155 3156 3155 3155 3155 3155
3165 3165 3166 3166 3166 3166 3167 3166 3167 3167 3167 3167 3167 3167 3167 3167 3167 3166 3165 3165 3165 3163 3163 3162 3162 3161 3161 3160 3159 3159 3158 3158 3157 3156 3155 3155 3155 3154 3154 3154 3154 3154 3154
3164 3164 3164 3164 3165 3165 3165 3165 3165 3165 3165 3166 3166 3165 3165 3165 3165 3165 3164 3164 3163 3163 3162 3162 3161 3161 3160 3159 3159 3158 3158 3157 3156 3155 3155 3154 3154 3154 3153 3153 3153 3153 3153
3162 3163 3163 3163 3163 3163 3163 3163 3163 3163 3163 3163 3163 3163 3163 3163 3163 3163 3162 3162 3161 3161 3160 3160 3160 3159 3158 3158 3158 3157 3156 3155 3154 3154 3153 3153 3153 3152 3152 3152 3152 3151 3151
3161 3161 3161 3161 3161 3161 3161 3161 3161 3161 3161 3161 3161 3161 3161 3161 3161 3161 3160 3160 3159 3159 3158 3158 3157 3157 3156 3156 3155 3155 3155 3154 3153 3152 3151 3151 3151 3150 3150 3149 3149 3149 3149
3159 3159 3159 3159 3159 3159 3159 3158 3158 3158 3158 3158 3158 3158 3158 3158 3158 3157 3157 3157 3157 3156 3156 3155 3154 3154 3154 3153 3152 3152 3152 3151 3151 3150 3149 3149 3149 3149 3148 3147 3147 3147 3147
3157 3157 3157 3157 3157 3157 3156 3156 3155 3155 3155 3154 3154 3154 3154 3154 3154 3153 3153 3153 3153 3153 3153 3152 3151 3151 3150 3150 3150 3149 3148 3148 3148 3147 3147 3147 3146 3146 3146 3145 3145 3144 3143
3155 3154 3154 3154 3154 3154 3153 3153 3152 3152 3152 3151 3151 3150 3150 3150 3150 3150 3149 3149 3149 3149 3148 3148 3147 3146 3145 3146 3145 3144 3144 3144 3143 3143 3143 3144 3144 3143 3142 3142 3142 3142 3141
3152 3152 3152 3151 3151 3151 3150 3149 3149 3148 3148 3148 3147 3147 3146 3146 3145 3145 3144 3144 3143 3143 3143 3142 3142 3141 3140 3140 3141 3139 3139 3139 3138 3138 3139 3139 3139 3139 3139 3138 3138 3138 3138
3148 3148 3148 3148 3148 3147 3146 3145 3144 3143 3143 3143 3142 3142 3141 3140 3140 3139 3138 3137 3137 3137 3136 3136 3135 3135 3133 3134 3135 3134 3134 3133 3133 3132 3133 3134 3134 3134 3134 3134 3134 3134 3134
3145 3145 3145 3144 3144 3143 3142 3141 3140 3139 3138 3137 3137 3136 3134 3133 3133 3132 3132 3131 3130 3130 3129 3129 3128 3128 3128 3127 3127 3127 3128 3128 3128 3127 3127 3127 3129 3128 3128 3128 3129 3128 3128
3142 3142 3141 3141 3140 3139 3138 3137 3135 3134 3133 3131 3130 3129 3127 3126 3125 3124 3123 3122 3122 3122 3122 3122 3121 3120 3120 3120 3120 3120 3119 3119 3120 3120 3120 3120 3122 3123 3122 3122 3122 3122 3123
3139 3138 3137 3136 3135 3134 3132 3131 3129 3128 3126 3124 3122 3121 3119 3118 3116 3115 3114 3113 3113 3113 3111 3111 3113 3112 3112 3112 3110 3111 3111 3111 3110 3111 3112 3113 3112 3114 3115 3114 3115 3115 3115
3135 3134 3132 3131 3129 3127 3125 3123 3122 3119 3117 3115 3113 3111 3110 3108 3106 3105 3104 3104 3104 3103 3102 3101 3101 3102 3102 3102 3102 3102 3102 3102 3102 3102 3103 3103 3104 3104 3105 3106 3107 3107 3108
3130 3129 3127 3125 3123 3121 3119 3117 3114 3112 3109 3106 3104 3102 3101 3099 3098 3096 3095 3094 3094 3093 3092 3091 3091 3090 3090 3091 3091 3091 3091 3090 3091 3092 3092 3093 3094 3094 3095 3095 3098 3098 3098
3124 3123 3121 3119 3117 3115 3112 3110 3107 3104 3101 3098 3096 3094 3092 3091 3089 3087 3086 3085 3085 3084 3083 3082 3080 3079 3078 3078 3078 3078 3078 3078 3078 3079 3081 3084 3085 3085 3086 3087 3088 3087 3078
3118 3117 3115 3113 3111 3108 3106 3103 3100 3097 3094 3091 3088 3086 3084 3083 3081 3080 3079 3078 3077 3076 3074 3073 3072 3070 3068 3067 3064 3065 3064 3064 3065 3067 3070 3071 3074 3076 3077 3077 3078 3079 3075
3112 3110 3110 3108 3105 3102 3100 3097 3094 3092 3088 3085 3082 3080 3078 3076 3075 3074 3073 3072 3070 3068 3066 3065 3063 3061 3059 3059 3056 3054 3051 3053 3054 3057 3058 3061 3063 3065 3066 3068 3069 3068 3069
3107 3106 3105 3103 3101 3098 3096 3093 3090 3086 3083 3079 3076 3074 3072 3071 3069 3068 3066 3065 3063 3061 3060 3058 3056 3054 3051 3050 3049 3048 3044 3042 3044 3046 3050 3052 3054 3053 3056 3058 3061 3061 3064
3103 3102 3101 3099 3097 3095 3091 3088 3085 3081 3077 3073 3070 3068 3066 3065 3064 3062 3060 3058 3057 3055 3053 3052 3050 3048 3045 3042 3042 3041 3039 3037 3035 3035 3041 3044 3045 3046 3046 3049 3053 3054 3056
3099 3098 3097 3096 3093 3090 3087 3084 3080 3076 3072 3068 3065 3062 3061 3060 3058 3056 3055 3053 3052 3050 3049 3047 3045 3043 3040 3037 3035 3033 3032 3030 3030 3028 3029 3036 3037 3024 3038 3044 3046 3046 3048
3097 3096 3094 3092 3089 3086 3083 3079 3075 3072 3068 3065 3061 3058 3056 3055 3053 3052 3050 3049 3047 3046 3045 3042 3040 3038 3035 3032 3030 3028 3026 3024 3024 3023 3024 3027 3029 3030 3031 3035 3038 3038 3041